Wind_Speed
98 98 99 100 100 99 98 97 97 99 102 105 108 112 116 118 118 118 118 117 116 117 117 118 119 120 120 120 120 120 119 119 118 118 117 116 115 114 113 112 111 110
99 99 100 101 101 102 102 101 99 99 101 104 107 110 115 119 121 122 122 122 122 121 121 121 122 122 123 124 124 124 123 123 122 122 121 120 120 119 118 117 116 115
101 101 102 102 103 104 104 104 103 102 103 104 106 109 112 117 122 125 126 126 127 127 126 125 125 126 126 126 127 128 128 127 127 126 125 125 124 123 122 121 120 119
103 104 105 105 105 105 106 106 105 105 105 106 107 109 112 115 119 124 128 130 131 131 131 131 130 129 129 129 130 130 131 131 131 130 130 129 128 127 127 126 125 124
107 107 107 107 107 107 107 107 107 107 107 107 108 110 113 116 118 121 126 130 133 134 135 135 135 135 134 134 134 134 134 134 134 134 133 133 133 132 131 131 130 129
109 109 109 108 108 108 107 107 108 108 108 108 109 110 112 115 119 122 125 128 132 136 138 139 139 139 139 139 138 138 138 137 137 137 136 136 136 136 136 135 134 133
111 111 110 109 109 108 108 108 108 108 109 109 110 112 113 114 117 121 125 128 130 134 138 141 143 143 143 143 143 143 142 142 141 141 140 139 139 139 139 139 138 137
113 112 111 110 109 108 108 108 108 109 109 110 111 113 114 115 117 119 122 126 129 132 135 140 144 146 147 147 147 147 147 146 146 145 144 143 142 142 142 141 141 140
113 112 111 110 109 108 108 108 108 108 109 110 111 113 114 115 117 119 121 123 126 129 132 135 139 144 148 150 150 150 150 150 150 149 149 148 147 146 145 145 144 143
112 111 111 110 109 108 107 106 106 107 107 108 110 111 113 114 116 118 120 122 124 126 128 130 133 136 141 145 149 151 152 152 152 152 152 152 151 150 150 149 148 147
107 107 106 106 105 104 104 103 103 103 104 105 106 108 110 112 114 116 118 120 122 124 126 128 129 131 132 135 139 144 147 150 152 154 154 154 154 154 154 154 153 152
100 100 100 100 100 100 100 100 100 100 100 101 103 104 106 108 111 113 115 117 119 121 123 125 127 128 129 129 131 133 136 140 144 148 151 154 155 156 157 157 157 157
95 95 96 96 96 96 96 97 97 97 98 99 100 102 103 105 107 109 111 113 116 118 120 122 123 125 127 127 128 128 129 130 133 136 140 144 149 152 155 157 158 159
93 93 93 93 93 93 94 94 95 95 96 98 99 100 101 102 104 105 107 110 112 114 116 118 120 122 123 124 125 126 127 127 127 128 130 133 136 141 146 150 154 157
92 92 92 92 92 92 92 92 93 94 95 96 97 98 99 100 101 103 104 106 108 110 112 114 116 118 119 121 122 122 124 124 124 125 126 127 128 131 134 138 143 147
91 91 91 91 91 91 91 92 92 93 94 95 96 97 98 98 100 101 102 103 105 107 109 111 112 114 115 117 118 119 120 121 121 121 122 123 124 125 127 130 133 136
91 91 90 90 91 91 91 91 92 93 93 94 95 96 97 98 99 100 101 102 103 104 106 108 109 110 112 113 114 115 116 116 116 117 118 119 121 122 123 125 127 129
91 91 91 90 90 90 90 91 91 92 92 93 94 95 95 97 98 99 100 101 101 102 103 104 106 107 108 110 111 112 113 112 112 113 114 116 117 118 119 120 122 124
92 91 91 90 90 90 89 90 90 90 91 91 92 93 94 95 96 97 98 99 99 100 101 102 103 104 106 107 108 109 109 109 109 109 110 111 113 115 116 116 117 118
90 89 89 88 88 88 88 88 88 88 88 89 89 90 91 92 93 94 95 96 96 97 97 98 100 101 103 104 105 105 106 106 106 106 106 107 109 110 111 112 113 113
87 87 87 87 86 86 86 86 86 86 87 87 87 88 88 90 90 91 92 92 93 93 94 95 96 98 99 100 101 102 102 102 102 102 103 105 106 107 108 108 109 109
87 87 86 86 86 86 86 86 86 86 86 86 86 87 88 88 88 89 89 90 91 91 91 92 94 95 96 97 98 98 98 98 98 99 100 101 103 104 105 105 106 107
88 88 88 88 88 87 87 87 87 87 87 87 87 87 88 88 88 88 88 89 89 90 90 91 92 93 94 95 95 95 95 94 95 95 96 97 98 100 101 102 103 104
88 88 88 88 88 88 88 88 88 88 87 87 87 87 87 88 88 88 88 89 89 89 90 89 90 92 93 93 93 93 92 92 92 92 93 93 95 96 98 99 99 101
88 88 88 88 88 88 88 88 88 88 87 87 87 86 86 87 87 87 87 88 89 89 88 88 89 91 92 92 91 91 90 90 89 89 90 91 92 93 95 96 97 98
88 87 87 87 87 87 87 88 87 87 87 87 86 86 86 86 86 86 86 87 88 88 88 88 89 89 90 90 89 88 88 87 87 86 87 87 89 91 92 94 95 95
Wind_Direction
274 274 274 274 273 272 271 270 268 267 266 263 260 258 256 255 254 254 253 253 253 253 253 253 253 253 253 253 254 254 254 254 254 254 254 254 255 255 256 256 256 256
276 275 273 273 273 273 272 270 268 267 266 265 263 260 257 255 254 254 253 252 252 252 252 252 252 253 253 253 253 253 253 253 253 253 253 253 254 254 254 255 255 255
277 277 276 275 273 273 272 271 269 268 266 265 264 263 260 257 255 254 253 252 252 252 252 251 252 252 252 252 253 253 253 252 253 253 253 253 253 253 253 254 254 254
279 278 278 277 275 274 273 272 271 269 267 265 264 263 263 261 258 255 253 253 252 252 252 251 251 251 251 252 252 252 253 252 252 252 252 253 253 253 253 253 253 254
281 280 279 278 277 276 274 273 272 270 268 267 265 263 263 262 261 258 256 254 253 252 252 252 251 251 251 251 251 252 252 252 253 252 252 252 253 253 253 253 253 254
282 281 280 279 277 276 275 273 272 270 269 267 265 263 262 261 261 260 258 256 254 253 253 252 252 252 251 251 251 251 252 252 252 253 253 252 253 253 253 253 253 253
283 282 280 279 278 276 275 273 272 270 269 267 265 264 262 261 260 260 259 258 256 255 254 253 253 252 252 252 252 252 252 252 252 253 253 253 253 253 253 253 253 253
283 282 281 280 278 277 275 273 272 270 269 267 266 264 263 261 260 259 259 259 258 256 255 254 253 253 253 253 253 253 253 253 253 253 253 253 253 253 253 253 254 254
284 283 282 280 279 277 275 274 272 271 269 268 266 265 264 262 261 260 260 259 259 258 257 256 255 254 254 254 254 254 254 254 254 254 254 254 254 254 254 254 254 254
284 283 282 281 279 278 276 274 273 271 270 269 267 266 265 264 262 261 261 260 260 259 259 259 258 257 256 255 255 255 255 255 255 255 255 255 255 255 255 255 255 255
283 282 281 280 279 278 277 275 274 273 271 270 268 267 266 265 264 263 262 261 261 260 260 260 260 260 259 258 257 257 256 256 256 256 256 256 256 255 255 255 255 255
283 282 281 280 279 278 277 276 275 274 272 271 270 269 267 266 265 264 263 263 262 261 261 261 261 261 261 260 260 259 258 257 257 257 257 256 256 256 256 256 256 256
283 282 281 280 279 278 277 276 275 274 273 272 270 269 268 267 266 265 265 264 263 263 262 262 261 261 261 262 261 261 261 260 259 258 258 257 257 257 257 256 256 256
283 282 281 280 279 278 278 277 276 275 273 272 271 270 269 268 267 267 266 266 265 264 264 263 263 262 262 262 262 262 262 261 261 260 260 259 258 258 257 257 257 257
283 282 281 280 279 279 278 277 276 275 274 273 272 271 271 270 269 268 267 267 266 266 265 264 264 264 263 263 263 262 262 262 262 261 261 260 260 259 259 258 258 258
283 282 281 280 279 279 278 277 276 275 275 274 273 272 272 271 270 269 268 267 267 266 266 266 265 265 264 264 264 264 263 263 263 262 262 261 261 260 260 259 259 259
283 282 281 280 279 279 278 277 276 275 275 274 274 273 272 271 271 270 269 268 268 267 267 267 267 266 266 266 265 265 265 264 264 264 263 263 262 261 261 260 260 259
284 283 282 281 281 280 279 278 277 277 276 275 274 274 273 272 271 271 270 269 269 268 268 268 268 267 267 267 266 266 266 266 265 264 264 264 264 263 262 261 261 260
285 284 283 283 282 281 280 279 278 277 276 275 275 274 273 273 272 272 271 271 270 270 269 269 269 268 268 268 267 267 267 266 266 265 264 264 264 264 263 263 262 261
285 285 284 283 282 281 280 279 278 277 276 275 274 274 273 272 272 271 271 271 270 270 270 269 269 269 268 268 268 267 267 267 267 266 266 265 265 264 264 263 263 262
286 285 284 284 283 282 281 280 279 278 277 276 275 274 273 272 272 271 271 271 270 269 269 269 268 268 267 267 267 267 267 267 267 267 267 266 266 266 265 265 264 264
287 287 286 285 285 284 283 282 281 280 279 278 277 276 275 274 273 273 272 272 271 270 269 268 268 267 267 266 266 266 266 266 266 266 265 265 266 266 266 266 265 265
289 288 287 287 286 285 284 283 283 282 281 280 279 279 278 277 276 275 274 274 273 272 271 270 269 269 268 267 266 266 266 265 265 265 265 265 265 265 265 265 265 265
289 288 287 287 286 285 285 284 284 283 282 282 281 280 280 279 278 278 277 276 275 273 273 272 271 270 269 268 268 267 266 266 266 265 265 265 264 264 264 264 264 264
288 288 287 287 286 286 285 285 284 284 283 283 282 282 281 281 280 279 278 278 277 276 275 274 273 271 270 270 269 268 268 267 267 266 266 265 265 265 264 264 264 263
288 287 287 287 286 286 285 285 285 284 284 283 283 282 282 281 281 280 280 279 279 278 277 276 274 273 273 272 271 270 269 269 268 267 266 265 265 265 264 264 264 263
Height
10518 10516 10513 10511 10508 10507 10506 10505 10504 10502 10501 10500 10500 10500 10500 10500 10500 10500 10500 10500 10500 10501 10501 10501 10501 10501 10502 10502 10503 10503 10504 10505 10507 10508 10510 10511 10514 10515 10517 10519 10521 10523
10500 10498 10496 10494 10492 10489 10487 10487 10486 10485 10483 10482 10481 10480 10480 10480 10481 10481 10481 10482 10482 10482 10482 10483 10483 10483 10484 10484 10485 10486 10486 10488 10489 10491 10493 10495 10497 10499 10501 10503 10505 10508
10480 10479 10477 10476 10474 10471 10469 10468 10467 10466 10465 10464 10463 10461 10460 10460 10460 10461 10461 10461 10462 10463 10463 10464 10464 10465 10465 10465 10466 10467 10468 10470 10472 10474 10476 10477 10479 10482 10484 10486 10489 10491
10461 10460 10458 10457 10456 10454 10452 10449 10448 10447 10446 10445 10443 10442 10441 10440 10440 10440 10440 10441 10441 10442 10443 10444 10445 10445 10446 10446 10447 10448 10449 10451 10453 10456 10458 10459 10461 10465 10466 10469 10472 10474
10442 10441 10439 10438 10436 10435 10433 10431 10429 10427 10426 10425 10424 10423 10422 10420 10419 10419 10419 10420 10421 10421 10422 10422 10423 10424 10426 10427 10427 10428 10430 10431 10434 10437 10441 10442 10443 10446 10448 10451 10454 10456
10423 10421 10420 10418 10416 10415 10413 10411 10409 10408 10406 10405 10404 10403 10402 10401 10399 10398 10398 10398 10399 10400 10400 10401 10401 10402 10404 10406 10407 10408 10410 10412 10414 10417 10421 10424 10425 10427 10429 10432 10436 10439
10402 10401 10400 10398 10396 10394 10392 10390 10388 10387 10385 10384 10382 10381 10381 10380 10379 10378 10377 10377 10377 10378 10378 10379 10379 10380 10381 10384 10386 10388 10390 10392 10394 10397 10400 10404 10406 10408 10410 10411 10416 10421
10382 10380 10379 10377 10375 10373 10371 10369 10367 10365 10363 10362 10361 10360 10359 10359 10359 10358 10357 10356 10356 10356 10356 10357 10357 10358 10359 10362 10365 10368 10370 10371 10374 10377 10380 10383 10386 10389 10390 10391 10395 10400
10362 10360 10357 10355 10353 10351 10350 10348 10346 10345 10343 10341 10340 10338 10338 10338 10337 10337 10336 10335 10335 10334 10335 10335 10336 10336 10338 10340 10343 10346 10350 10352 10353 10356 10359 10363 10365 10368 10370 10371 10374 10379
10344 10340 10337 10334 10331 10330 10329 10327 10326 10325 10323 10322 10320 10318 10317 10316 10316 10316 10316 10315 10315 10314 10314 10314 10314 10315 10317 10319 10322 10325 10328 10331 10333 10335 10338 10342 10345 10347 10349 10350 10352 10356
10327 10323 10318 10315 10311 10309 10308 10307 10306 10305 10304 10303 10302 10300 10298 10296 10296 10295 10295 10295 10295 10294 10294 10293 10293 10294 10296 10298 10301 10303 10306 10310 10313 10315 10318 10321 10324 10327 10329 10330 10331 10334
10310 10306 10302 10297 10294 10292 10290 10289 10288 10287 10285 10284 10283 10281 10279 10277 10276 10275 10275 10275 10275 10275 10275 10274 10274 10274 10275 10278 10280 10282 10285 10289 10292 10295 10298 10300 10303 10306 10307 10309 10311 10313
10293 10289 10285 10281 10278 10276 10274 10272 10270 10269 10267 10265 10263 10262 10260 10258 10257 10257 10256 10256 10256 10256 10255 10255 10256 10256 10257 10258 10260 10262 10264 10267 10270 10274 10277 10280 10282 10284 10285 10287 10289 10292
10275 10272 10268 10265 10263 10260 10258 10256 10253 10251 10249 10247 10245 10244 10243 10242 10241 10240 10239 10238 10238 10237 10236 10236 10236 10237 10238 10239 10241 10243 10244 10247 10250 10252 10256 10259 10261 10263 10264 10265 10267 10269
10258 10255 10252 10249 10247 10245 10242 10240 10237 10234 10232 10230 10228 10227 10226 10225 10224 10223 10223 10221 10220 10218 10217 10217 10217 10218 10218 10219 10222 10224 10225 10227 10230 10233 10235 10238 10240 10242 10243 10243 10244 10246
10241 10238 10236 10233 10231 10228 10226 10224 10221 10219 10216 10214 10212 10210 10209 10208 10207 10206 10205 10205 10203 10201 10199 10199 10199 10199 10200 10200 10202 10203 10205 10207 10211 10214 10216 10217 10220 10222 10223 10223 10223 10224
10225 10222 10220 10217 10215 10213 10210 10208 10205 10203 10201 10198 10196 10194 10193 10191 10190 10188 10187 10187 10187 10185 10184 10182 10182 10182 10182 10182 10183 10183 10185 10189 10194 10197 10197 10197 10198 10200 10203 10204 10204 10203
10208 10206 10204 10202 10200 10197 10195 10193 10190 10188 10185 10183 10181 10179 10177 10175 10172 10171 10170 10169 10170 10169 10169 10168 10167 10166 10165 10165 10165 10164 10166 10170 10176 10179 10179 10177 10177 10178 10181 10184 10185 10185
10192 10190 10188 10186 10184 10181 10179 10177 10175 10172 10170 10168 10166 10163 10161 10159 10156 10154 10153 10153 10153 10153 10153 10152 10151 10150 10148 10147 10147 10148 10148 10151 10156 10160 10161 10160 10159 10158 10160 10163 10165 10166
10178 10176 10173 10170 10167 10165 10163 10161 10159 10156 10154 10152 10151 10149 10146 10143 10140 10139 10138 10137 10137 10137 10137 10136 10134 10132 10131 10130 10130 10131 10131 10133 10137 10140 10142 10142 10141 10140 10141 10143 10145 10148
10164 10161 10158 10155 10152 10149 10146 10144 10142 10139 10137 10135 10134 10133 10130 10128 10125 10124 10123 10122 10122 10122 10122 10121 10118 10115 10114 10113 10113 10114 10115 10117 10121 10123 10123 10123 10122 10121 10122 10124 10126 10127
10148 10145 10142 10139 10136 10133 10130 10127 10125 10122 10120 10119 10117 10115 10113 10111 10110 10109 10108 10106 10105 10104 10105 10104 10101 10098 10097 10097 10097 10098 10100 10102 10105 10106 10107 10106 10105 10104 10105 10106 10107 10108
10132 10129 10126 10123 10120 10117 10114 10111 10109 10107 10105 10103 10102 10099 10096 10095 10094 10093 10092 10090 10089 10087 10087 10087 10085 10081 10080 10081 10080 10082 10085 10087 10089 10090 10091 10092 10090 10088 10089 10090 10090 10090
10118 10115 10112 10108 10105 10102 10099 10097 10094 10091 10090 10089 10087 10085 10082 10080 10079 10078 10076 10073 10072 10070 10070 10070 10069 10064 10062 10063 10064 10065 10069 10072 10074 10075 10076 10076 10075 10073 10072 10072 10073 10072
10105 10102 10098 10095 10092 10089 10086 10082 10079 10077 10076 10074 10072 10071 10069 10066 10064 10063 10061 10057 10055 10054 10053 10053 10052 10048 10045 10046 10048 10049 10052 10056 10058 10060 10061 10060 10059 10057 10055 10055 10056 10056
10091 10088 10085 10082 10079 10076 10072 10069 10066 10064 10062 10060 10058 10056 10055 10053 10050 10049 10048 10044 10040 10038 10037 10035 10034 10033 10030 10030 10032 10034 10037 10040 10042 10043 10044 10044 10042 10041 10039 10038 10038 10039